Weather History for Crestview, FL

Change the Weather History Date:

Tuesday, January 29, 2013

  Actual Average Record
Temperature  
Mean Temperature 66 °F -  
Max Temperature 73 °F - - ()
Min Temperature 59 °F - - ()
Cooling Degree Days 1    
Growing Degree Days 16 (Base 50)    
Moisture  
Dew Point 63 °F    
Average Humidity 93    
Maximum Humidity 100    
Minimum Humidity 77    
Precipitation  
Precipitation 0.02 in - - ()
Sea Level Pressure  
Sea Level Pressure 30.10 in    
Wind  
Wind Speed 6 mph (SE)    
Max Wind Speed 18 mph    
Max Gust Speed 25 mph    
Visibility 5 miles    
Events Fog , Rain    
T = Trace of Precipitation, MM = Missing Value Source: NWS Daily Summary

Daily Weather History Graph

Daily Weather History Graph

Search for Another Location

Airport:

Trip Planner

Search our weather history database for the weather conditions in past years. The results will help you decide how hot, cold, wet, or windy it might be!

Date:

Astronomy

Jan. 29, 2013 Rise Set
Actual Time 6:38 AM CST 5:19 PM CST
Civil Twilight 6:13 AM CST 5:45 PM CST
Nautical Twilight 5:44 AM CST 6:14 PM CST
Astronomical Twilight 5:16 AM CST 6:42 PM CST
Moon 7:59 PM CST (1/29) 7:49 AM CST (1/29)
Length of Visible Light 11h 31m
Length of Day
10h 40m
Waning Gibbous, 93% of the Moon is Illuminated
Jan 29
Waning Gibbous
Feb 3
Last Quarter
Feb 10
New
Feb 17
First Quarter
Feb 25
Full

Hourly Weather History & Observations

Time (CST) Temp. Dew Point Humidity Pressure Visibility Wind Dir Wind Speed Gust Speed Precip Events Conditions
12:34 AM 60.8 °F 59.0 °F 94% 30.18 in 2.5 mi SE 2.3 mph - N/A   Partly Cloudy
12:41 AM 60.8 °F 59.0 °F 94% 30.18 in 2.0 mi SE 2.3 mph - N/A   Partly Cloudy
12:46 AM 59.0 °F 59.0 °F 100% 30.18 in 1.0 mi SE 2.3 mph - N/A   Clear
12:51 AM 59.0 °F 59.0 °F 100% 30.18 in 0.8 mi SE 2.3 mph - N/A   Clear
12:56 AM 59.0 °F 59.0 °F 100% 30.18 in 1.0 mi SE 2.3 mph - N/A   Clear
12:58 AM 59.0 °F 59.0 °F 100% 30.18 in 1.0 mi ESE 2.3 mph - N/A   Clear
1:08 AM 59.0 °F 57.2 °F 94% 30.17 in 1.2 mi SE 3.5 mph - N/A   Clear
1:13 AM 59.0 °F 59.0 °F 100% 30.17 in 1.2 mi SE 3.5 mph - N/A   Partly Cloudy
1:18 AM 59.0 °F 59.0 °F 100% 30.17 in 1.5 mi SE 3.5 mph - N/A   Partly Cloudy
1:23 AM 60.8 °F 60.8 °F 100% 30.17 in 2.5 mi SE 3.5 mph - N/A   Partly Cloudy
1:28 AM 60.8 °F 60.8 °F 100% 30.16 in 3.0 mi SE 3.5 mph - N/A   Partly Cloudy
1:58 AM 61.3 °F 61.0 °F 99% 30.16 in 3.0 mi SSE 4.6 mph - N/A   Clear
2:13 AM 60.8 °F 60.8 °F 100% 30.16 in 3.0 mi SE 2.3 mph - N/A   Mostly Cloudy
2:18 AM 60.8 °F 60.8 °F 100% 30.15 in 2.5 mi East 1.2 mph - N/A   Mostly Cloudy
2:28 AM 60.8 °F 60.8 °F 100% 30.15 in 3.0 mi East 2.3 mph - N/A   Mostly Cloudy
2:38 AM 60.8 °F 60.8 °F 100% 30.15 in 5.0 mi East 2.3 mph - N/A   Scattered Clouds
2:53 AM 59.0 °F 59.0 °F 100% 30.15 in 1.2 mi East 2.3 mph - N/A   Partly Cloudy
2:58 AM 59.5 °F 59.4 °F 99% 30.15 in 1.0 mi East 1.2 mph - N/A   Clear
3:13 AM 59.0 °F 59.0 °F 100% 30.15 in 0.8 mi NE 2.3 mph - N/A   Clear
3:18 AM 59.0 °F 59.0 °F 100% 30.15 in 0.5 mi NE 2.3 mph - N/A Fog Fog
3:28 AM 59.0 °F 59.0 °F 100% 30.15 in 0.5 mi NE 3.5 mph - N/A Fog Fog
3:33 AM 59.0 °F 59.0 °F 100% 30.15 in 1.0 mi NE 2.3 mph - N/A   Mostly Cloudy
3:38 AM 59.0 °F 59.0 °F 100% 30.15 in 1.5 mi ENE 2.3 mph - N/A   Mostly Cloudy
3:43 AM 59.0 °F 59.0 °F 100% 30.15 in 1.8 mi ENE 1.2 mph - N/A   Mostly Cloudy
3:48 AM 59.0 °F 59.0 °F 100% 30.15 in 2.0 mi East 2.3 mph - N/A   Mostly Cloudy
3:53 AM 59.0 °F 59.0 °F 100% 30.15 in 2.5 mi East 3.5 mph - N/A   Mostly Cloudy
3:58 AM 59.0 °F 59.0 °F 100% 30.15 in 5.0 mi East 3.5 mph - N/A   Mostly Cloudy
4:39 AM 59.0 °F 59.0 °F 100% 30.14 in 2.5 mi NE 2.3 mph - N/A   Mostly Cloudy
4:44 AM 59.0 °F 59.0 °F 100% 30.14 in 3.0 mi North 1.2 mph - N/A   Mostly Cloudy
4:58 AM 59.9 °F 59.5 °F 99% 30.14 in 5.0 mi Calm Calm - N/A   Mostly Cloudy
5:58 AM 64.4 °F 62.8 °F 94% 30.14 in 10.0 mi SE 6.9 mph - N/A   Clear
6:58 AM 65.5 °F 61.3 °F 86% 30.14 in 10.0 mi SSE 8.1 mph - N/A   Scattered Clouds
7:08 AM 66.2 °F 60.8 °F 83% 30.14 in 10.0 mi SSE 6.9 mph - N/A   Mostly Cloudy
7:13 AM 66.2 °F 60.8 °F 83% 30.14 in 10.0 mi SSE 8.1 mph - N/A   Mostly Cloudy
7:18 AM 66.2 °F 60.8 °F 83% 30.14 in 10.0 mi SSE 8.1 mph - N/A   Mostly Cloudy
7:48 AM 68.0 °F 60.8 °F 78% 30.14 in 10.0 mi SSE 6.9 mph - N/A   Scattered Clouds
7:58 AM 67.8 °F 61.3 °F 80% 30.14 in 10.0 mi SSE 6.9 mph - N/A   Scattered Clouds
8:18 AM 68.0 °F 60.8 °F 78% 30.15 in 10.0 mi SSE 10.4 mph - N/A   Mostly Cloudy
8:23 AM 68.0 °F 60.8 °F 78% 30.15 in 10.0 mi SSE 11.5 mph - N/A   Mostly Cloudy
8:55 AM 68.9 °F 61.9 °F 78% 30.15 in 10.0 mi SSE 13.8 mph - N/A   Mostly Cloudy
9:40 AM 68.0 °F 64.4 °F 88% 30.15 in 6.0 mi SSE 13.8 mph 21.9 mph N/A   Light Drizzle
9:50 AM 68.0 °F 66.2 °F 94% 30.15 in 10.0 mi SSE 11.5 mph - N/A   Overcast
10:55 AM 70.0 °F 64.9 °F 84% 30.14 in 10.0 mi SSE 13.8 mph - N/A   Overcast
11:29 AM 71.6 °F 66.2 °F 83% 30.12 in 10.0 mi SSE 15.0 mph 18.4 mph N/A   Overcast
11:55 AM 71.8 °F 65.7 °F 81% 30.11 in 10.0 mi South 15.0 mph 19.6 mph N/A   Overcast
12:55 PM 72.7 °F 65.8 °F 79% 30.07 in 10.0 mi SSE 16.1 mph 20.7 mph N/A   Mostly Cloudy
1:55 PM 73.4 °F 65.8 °F 77% 30.04 in 10.0 mi South 18.4 mph 24.2 mph N/A   Mostly Cloudy
2:40 PM 71.6 °F 66.2 °F 83% 30.04 in 10.0 mi South 16.1 mph 23.0 mph N/A   Overcast
2:55 PM 71.6 °F 66.0 °F 82% 30.03 in 10.0 mi SSE 15.0 mph - N/A   Overcast
3:55 PM 70.9 °F 65.8 °F 84% 30.02 in 10.0 mi SSE 11.5 mph - N/A   Overcast
4:19 PM 69.8 °F 66.2 °F 88% 30.02 in 10.0 mi SSE 12.7 mph 20.7 mph N/A   Overcast
4:50 PM 69.8 °F 66.2 °F 88% 30.02 in 10.0 mi SSE 11.5 mph 19.6 mph N/A   Overcast
4:55 PM 69.3 °F 66.2 °F 90% 30.02 in 10.0 mi SSE 15.0 mph - N/A   Overcast
5:25 PM 68.0 °F 66.2 °F 94% 30.01 in 10.0 mi SSE 11.5 mph - N/A   Overcast
5:43 PM 68.0 °F 66.2 °F 94% 30.00 in 10.0 mi SSE 10.4 mph - N/A   Overcast
5:55 PM 68.2 °F 66.7 °F 95% 30.01 in 4.0 mi SSE 11.5 mph - N/A   Overcast
6:23 PM 68.0 °F 66.2 °F 94% 30.01 in 3.0 mi SSE 10.4 mph - N/A   Overcast
6:55 PM 68.2 °F 67.3 °F 97% 30.00 in 3.0 mi SSE 11.5 mph 19.6 mph N/A   Overcast
7:55 PM 68.4 °F 67.8 °F 98% 30.00 in 2.0 mi SE 11.5 mph - N/A   Overcast
8:18 PM 68.0 °F 68.0 °F 100% 29.99 in 1.5 mi SSE 11.5 mph - N/A   Overcast
8:55 PM 68.5 °F 68.2 °F 99% 29.99 in 1.0 mi SSE 12.7 mph - N/A   Overcast
9:55 PM 68.9 °F 68.4 °F 98% 29.98 in 1.0 mi SSE 15.0 mph 21.9 mph N/A   Overcast
10:55 PM 69.3 °F 68.7 °F 98% 29.96 in 1.0 mi SSE 18.4 mph 25.3 mph 0.00 in Rain Light Rain Showers
11:01 PM 69.8 °F 68.0 °F 94% 29.96 in 0.5 mi SSE 17.3 mph 24.2 mph N/A Fog , Rain Light Rain Showers
11:20 PM 69.8 °F 68.0 °F 94% 29.94 in 0.5 mi SSE 17.3 mph 25.3 mph N/A Fog Fog
11:55 PM 69.4 °F 69.3 °F 99% 29.95 in 0.5 mi South 18.4 mph 25.3 mph 0.02 in Fog Fog
11:56 PM 69.8 °F 69.8 °F 100% 29.94 in 7.0 mi South 17.3 mph 25.3 mph N/A   Overcast